WY7ATH-2 Weather Reports


time (UTC)temp
C
wind
direction
speed
KPH
gust
KPH
rain 1hr
cm
rain 24hr
cm
rain mn
cm
humidity
%
barometer
mb
20260504185150 12 287 0.0 0.0 1.78 16.69 8.23
20260504184153 12 287 0.0 0.0 1.78 16.69 7.95
20260504175205 14 287 0.0 0.0 1.50 16.69 6.50
20260504174208 14 287 0.0 0.0 1.50 16.69 6.17
20260504170216 19 287 0.0 0.0 1.50 16.69 5.03
20260504160230 20 287 0.0 0.0 1.55 16.69 3.53
20260504140300 17 287 0.0 0.0 0.48 16.69 0.64
20260504110345 5 287 0.0 0.0 0.00 16.69 0.00
20260504081431 5 287 0.0 0.0 0.00 16.69 0.00
20260504080431 6 287 0.0 0.0 0.00 16.69 0.00
20260504050520 5 287 0.0 0.0 0.00 19.53 16.69
20260504045519 5 287 0.0 0.0 0.00 19.53 16.69
20260504044522 5 287 0.0 0.0 0.00 19.53 16.69
20260504043526 5 287 0.0 0.0 0.00 19.53 16.69
20260504042529 5 287 0.0 0.0 0.00 19.53 16.69
20260504041532 5 287 0.0 0.0 0.00 19.53 16.69
20260504040531 5 287 0.0 0.0 0.00 19.53 16.69
20260504035535 5 287 0.0 0.0 0.00 19.53 16.69
20260504031547 6 287 0.0 0.0 0.00 19.53 16.69
20260504025550 7 287 0.0 0.0 0.53 19.53 16.69
20260504022559 8 287 0.0 0.0 0.53 19.53 16.69
20260504015605 10 287 0.0 0.0 0.99 19.53 16.69
20260504014608 12 287 0.0 0.0 0.99 19.53 16.66
20260504012614 13 287 0.0 0.0 0.99 19.53 16.48
20260504011617 14 287 0.0 0.0 0.99 19.53 16.41
20260504010617 15 287 0.0 0.0 0.99 19.53 16.26
20260504001632 16 287 0.0 0.0 1.19 19.53 15.47
20260503235634 17 287 0.0 0.0 1.35 19.53 15.14
20260503232644 18 287 0.0 0.0 1.35 19.53 14.55
20260503224651 20 287 0.0 0.0 1.27 19.53 13.74
20260503223653 20 287 0.0 0.0 1.27 19.53 13.49
20260503222656 20 287 0.0 0.0 1.27 19.53 13.28
20260503221700 20 287 0.0 0.0 1.27 19.53 13.03
20260503214705 20 287 0.0 0.0 1.40 19.53 12.37
20260503211715 19 287 0.0 0.0 1.40 19.53 11.71
20260503210714 18 287 0.0 0.0 1.40 19.53 11.51
20260503205717 19 287 0.0 0.0 1.24 19.53 11.30
20260503202726 20 287 0.0 0.0 1.24 19.53 10.59
20260503201729 20 287 0.0 0.0 1.24 19.53 10.36
20260503200729 20 287 0.0 0.0 1.24 19.53 10.13
20260503195732 18 287 0.0 0.0 1.30 19.53 9.93
20260503194735 18 287 0.0 0.0 1.30 19.53 9.73
20260503193738 19 287 0.0 0.0 1.30 19.53 9.55
20260503192741 18 287 0.0 0.0 1.30 19.53 9.35